Fullerton, CA

7:31 PM PDT on May 26, 2017 (GMT -0700)
Fullerton Municipal

Weather History for KFUL - October, 2014

Change the Weather History Date:

Friday, October 24, 2014

  Actual Average Record
Temperature  
Mean Temperature 73 °F 66 °F  
Max Temperature 89 °F 77 °F 97 °F (2007)
Min Temperature 57 °F 56 °F 54 °F (2008)
Degree Days  
Heating Degree Days 0 1  
Month to date heating degree days 0 9  
Since 1 July heating degree days 0 10  
Cooling Degree Days 8 3  
Month to date cooling degree days 228 98  
Year to date cooling degree days 2013 1216  
Growing Degree Days 22 (Base 50)    
Moisture  
Dew Point 49 °F    
Average Humidity 50    
Maximum Humidity 86    
Minimum Humidity 14    
Precipitation  
Precipitation 0.00 in 0.03 in 0.14 in (2010)
Month to date precipitation 0.00 0.52  
Year to date precipitation 3.58 10.50  
Since 1 July precipitation 0.12  
Snow  
Snow 0.00 in - - ()
Month to date snowfall 0.0  
Year to date snowfall 0.0  
Snow Depth 0.00 in    
Sea Level Pressure  
Sea Level Pressure 29.95 in    
Wind  
Wind Speed 3 mph (South)    
Max Wind Speed 9 mph    
Max Gust Speed 11 mph    
Visibility 10 miles    
Events      
T = Trace of Precipitation, MM = Missing Value Source: NWS Daily Summary

Daily Weather History Graph

Daily Weather History Graph

Search for Another Location

Airport or City:

Trip Planner

Search our weather history database for the weather conditions in past years. The results will help you decide how hot, cold, wet, or windy it might be!

Date:

Astronomy

Oct. 24, 2014 Rise Set
Actual Time 7:04 AM PDT 6:07 PM PDT
Civil Twilight 6:38 AM PDT 6:32 PM PDT
Nautical Twilight 6:09 AM PDT 7:01 PM PDT
Astronomical Twilight 5:40 AM PDT 7:30 PM PDT
Moon 7:46 AM PDT (10/24) 6:52 PM PDT (10/24)
Length of Visible Light 11h 53m
Length of Day
11h 03m
New Moon, 1% of the Moon is Illuminated
Oct 24
New Moon
Oct 30
First Quarter
Nov 6
Full
Nov 14
Last Quarter
Nov 22
New

Hourly Weather History & Observations

Time (PDT) Temp. Dew Point Humidity Pressure Visibility Wind Dir Wind Speed Gust Speed Precip Events Conditions
12:53 AM 64.0 °F 55.0 °F 73% 29.96 in 10.0 mi Calm Calm - N/A   Clear
1:53 AM 62.1 °F 55.0 °F 78% 29.96 in 10.0 mi Calm Calm - N/A   Unknown
2:53 AM 61.0 °F 54.0 °F 78% 29.95 in 10.0 mi Calm Calm - N/A   Clear
3:53 AM 61.0 °F 51.1 °F 70% 29.94 in 10.0 mi ESE 3.5 mph - N/A   Clear
4:53 AM 60.1 °F 51.1 °F 72% 29.94 in 10.0 mi Calm Calm - N/A   Unknown
5:53 AM 57.9 °F 53.1 °F 84% 29.94 in 10.0 mi Calm Calm - N/A   Clear
6:53 AM 57.0 °F 52.0 °F 83% 29.96 in 10.0 mi Calm Calm - N/A   Clear
7:53 AM 61.0 °F 53.1 °F 75% 29.97 in 10.0 mi Calm Calm - N/A   Clear
8:53 AM 70.0 °F 48.9 °F 47% 29.99 in 10.0 mi East 5.8 mph - N/A   Clear
9:53 AM 75.9 °F 46.0 °F 35% 29.98 in 10.0 mi ESE 5.8 mph - N/A   Clear
10:53 AM 81.0 °F 44.1 °F 27% 29.98 in 10.0 mi SSW 4.6 mph - N/A   Clear
11:53 AM 84.0 °F 46.0 °F 26% 29.97 in 10.0 mi Calm Calm - N/A   Clear
12:53 PM 87.1 °F 46.0 °F 24% 29.94 in 10.0 mi North - - N/A   Clear
1:53 PM 87.1 °F 46.9 °F 25% 29.92 in 10.0 mi Variable 6.9 mph - N/A   Clear
2:53 PM 88.0 °F 32.0 °F 14% 29.91 in 10.0 mi SW 6.9 mph - N/A   Clear
3:53 PM 86.0 °F 39.9 °F 20% 29.91 in 10.0 mi WSW 5.8 mph - N/A   Clear
4:53 PM 84.0 °F 35.1 °F 17% 29.91 in 10.0 mi SSW 5.8 mph - N/A   Clear
5:53 PM 81.0 °F 43.0 °F 26% 29.91 in 10.0 mi South 4.6 mph - N/A   Clear
6:53 PM 77.0 °F 48.9 °F 37% 29.92 in 10.0 mi Calm Calm - N/A   Unknown
7:53 PM 73.9 °F 57.9 °F 57% 29.94 in 10.0 mi SW 3.5 mph - N/A   Clear
8:53 PM 71.1 °F 55.9 °F 59% 29.95 in 10.0 mi Calm Calm - N/A   Clear
9:53 PM 70.0 °F 57.0 °F 63% 29.97 in 10.0 mi Calm Calm - N/A   Clear
10:53 PM 66.9 °F 55.0 °F 66% 29.99 in 10.0 mi Calm Calm - N/A   Clear
11:53 PM 64.9 °F 55.0 °F 70% 30.00 in 10.0 mi Calm Calm - N/A   Clear